Powrót do katalogu

ATLAS 5 CENTAUR DEB

AktywnyHEO
NORAD 44668·DEBRIS·🇺🇸 United States

Wystrzelony Oct 17, 2018 z Cape Canaveral Space Force Station

Loading…

Następne Przeloty (najbliższe 24 godziny)

TLE

Starzejące sięSource: Space-Track

Epoka: Sep 3, 2026, 09:12 UTC

1 44668U 18079AE  26246.38343730 -.00000080  00000-0  00000-0 0  9993
2 44668  13.4899 351.0845 4557101  47.2792 342.9813  1.97451323 52376

Śledź ATLAS 5 CENTAUR DEB w czasie rzeczywistym z AllMySat

Download on the App Store